Weather History for Stavanger, Norway

Change the Weather History Date:

Thursday, February 7, 2013

  Actual Average Record
Temperature  
Mean Temperature 30 °F -  
Max Temperature 38 °F 39 °F 46 °F (1997)
Min Temperature 21 °F 29 °F 21 °F (2007)
Degree Days  
Heating Degree Days 36    
Moisture  
Dew Point 21 °F    
Average Humidity 75    
Maximum Humidity 93    
Minimum Humidity 50    
Precipitation  
Precipitation 0.00 in 0.09 in - ()
Sea Level Pressure  
Sea Level Pressure 29.83 in    
Wind  
Wind Speed 3 mph ()    
Max Wind Speed 8 mph    
Max Gust Speed -    
Visibility 7.2 miles    
Events      
Averages and records for this station are not official NWS values.
T = Trace of Precipitation, MM = Missing Value Source: Averaged Metar Reports

Daily Weather History Graph

Daily Weather History Graph

Search for Another Location

Airport:

Trip Planner

Search our weather history database for the weather conditions in past years. The results will help you decide how hot, cold, wet, or windy it might be!

Date:

Astronomy

Feb. 07, 2013 Rise Set
Actual Time 8:31 AM CET 5:12 PM CET
Civil Twilight 7:47 AM CET 5:56 PM CET
Nautical Twilight 6:59 AM CET 6:44 PM CET
Astronomical Twilight 6:12 AM CET 7:31 PM CET
Moon 6:23 AM CET (2/7) 1:54 PM CET (2/7)
Length of Visible Light 10h 09m
Length of Day
8h 41m
Waning Crescent, 11% of the Moon is Illuminated
Feb 7
Waning Crescent
Feb 10
New
Feb 17
First Quarter
Feb 25
Full
Mar 4
Last Quarter

Hourly Weather History & Observations

Time (CET) Temp. Windchill Dew Point Humidity Pressure Visibility Wind Dir Wind Speed Gust Speed Precip Events Conditions
12:20 AM 23.0 °F 17.0 °F 19.4 °F 86% 29.68 in 6.2 mi SE 4.6 mph - N/A   Partly Cloudy
12:50 AM 23.0 °F 13.9 °F 21.2 °F 93% 29.68 in 6.2 mi SE 8.1 mph - N/A   Partly Cloudy
1:00 AM 24 °F - 21 °F 81% 29.71 in 22 mi SE 6.7 mph - -   Clear
1:20 AM 24.8 °F - 21.2 °F 86% 29.71 in 6.2 mi Variable 1.2 mph - N/A   Partly Cloudy
1:50 AM 23.0 °F 18.4 °F 19.4 °F 86% 29.71 in 6.2 mi SE 3.5 mph - N/A   Partly Cloudy
2:50 AM 23.0 °F 14.7 °F 19.4 °F 86% 29.71 in 6.2 mi SE 6.9 mph - N/A   Partly Cloudy
3:50 AM 23.0 °F - 19.4 °F 86% 29.71 in 6.2 mi Variable 2.3 mph - N/A   Partly Cloudy
4:50 AM 23.0 °F 18.4 °F 17.6 °F 80% 29.71 in 6.2 mi East 3.5 mph - N/A   Partly Cloudy
5:50 AM 21.2 °F - 17.6 °F 86% 29.71 in 6.2 mi Variable 1.2 mph - N/A   Partly Cloudy
6:20 AM 21.2 °F - 19.4 °F 93% 29.71 in 6.2 mi Variable 1.2 mph - N/A   Partly Cloudy
6:50 AM 23.0 °F 15.8 °F 19.4 °F 86% 29.74 in 6.2 mi ESE 5.8 mph - N/A   Partly Cloudy
7:00 AM 24 °F - 21 °F 84% 29.75 in 31 mi Calm Calm - -   Clear
7:20 AM 24.8 °F - 19.4 °F 80% 29.74 in 6.2 mi SSE 2.3 mph - N/A   Partly Cloudy
7:50 AM 23.0 °F - 19.4 °F 86% 29.77 in 6.2 mi Calm Calm - N/A   Partly Cloudy
8:20 AM 23.0 °F 18.4 °F 19.4 °F 86% 29.77 in 6.2 mi SSE 3.5 mph - N/A   Partly Cloudy
8:50 AM 23.0 °F - 19.4 °F 86% 29.77 in 6.2 mi Variable 1.2 mph - N/A   Partly Cloudy
9:20 AM 23.0 °F - 19.4 °F 86% 29.77 in 6.2 mi SE 2.3 mph - N/A   Partly Cloudy
9:50 AM 23.0 °F - 19.4 °F 86% 29.80 in 6.2 mi Variable 1.2 mph - N/A   Partly Cloudy
10:20 AM 26.6 °F - 21.2 °F 80% 29.80 in 6.2 mi Calm Calm - N/A   Partly Cloudy
10:50 AM 30.2 °F 26.7 °F 21.2 °F 69% 29.80 in - SE 3.5 mph - N/A   Clear
11:20 AM 32.0 °F 28.7 °F 21.2 °F 64% 29.83 in - SE 3.5 mph - N/A   Clear
11:50 AM 32.0 °F 28.7 °F 23.0 °F 69% 29.83 in - SE 3.5 mph - N/A   Clear
12:20 PM 33.8 °F 30.8 °F 23.0 °F 65% 29.83 in - SSE 3.5 mph - N/A   Clear
12:50 PM 35.6 °F - 23.0 °F 60% 29.83 in - SE 2.3 mph - N/A   Clear
1:00 PM 35 °F - 23 °F 50% 29.85 in 19 mi SE 4.5 mph - -   Clear
1:20 PM 35.6 °F - 23.0 °F 60% 29.83 in - SE 2.3 mph - N/A   Clear
1:50 PM 37.4 °F - 23.0 °F 56% 29.86 in - SE 1.2 mph - N/A   Clear
2:20 PM 37.4 °F 34.9 °F 21.2 °F 52% 29.86 in - East 3.5 mph - N/A   Clear
2:50 PM 37.4 °F - 21.2 °F 52% 29.86 in - Variable 2.3 mph - N/A   Clear
3:20 PM 35.6 °F - 21.2 °F 56% 29.86 in - SE 2.3 mph - N/A   Clear
3:50 PM 35.6 °F - 23.0 °F 60% 29.86 in - SE 2.3 mph - N/A   Clear
4:20 PM 35.6 °F - 21.2 °F 56% 29.89 in - SSE 1.2 mph - N/A   Clear
4:50 PM 35.6 °F - 19.4 °F 52% 29.89 in - Calm Calm - N/A   Clear
5:20 PM 33.8 °F - 21.2 °F 60% 29.89 in - SSE 1.2 mph - N/A   Clear
5:50 PM 32.0 °F - 21.2 °F 64% 29.89 in - WSW 2.3 mph - N/A   Clear
6:20 PM 30.2 °F - 21.2 °F 69% 29.92 in - ENE 1.2 mph - N/A   Clear
6:50 PM 28.4 °F - 21.2 °F 74% 29.92 in - Calm Calm - N/A   Clear
7:00 PM 28 °F - 22 °F 70% 29.93 in 12 mi South 2.2 mph - -   Clear
7:20 PM 28.4 °F - 21.2 °F 74% 29.92 in - South 2.3 mph - N/A   Clear
7:50 PM 26.6 °F - 21.2 °F 80% 29.92 in - Variable 1.2 mph - N/A   Clear
8:20 PM 26.6 °F 22.6 °F 21.2 °F 80% 29.92 in - ESE 3.5 mph - N/A   Clear
8:50 PM 26.6 °F - 21.2 °F 80% 29.92 in - SE 1.2 mph - N/A   Clear
9:20 PM 26.6 °F - 21.2 °F 80% 29.95 in - SE 2.3 mph - N/A   Clear
9:50 PM 24.8 °F - 21.2 °F 86% 29.95 in - SSE 2.3 mph - N/A   Clear
10:20 PM 24.8 °F - 19.4 °F 80% 29.95 in - SE 1.2 mph - N/A   Clear
10:50 PM 24.8 °F - 19.4 °F 80% 29.95 in - Calm Calm - N/A   Clear
11:20 PM 23.0 °F - 19.4 °F 86% 29.95 in - SE 1.2 mph - N/A   Clear
11:50 PM 23.0 °F 18.4 °F 17.6 °F 80% 29.95 in - ESE 3.5 mph - N/A   Clear